Location: Hilde
(52.9479°N, 6.4449°E)
Time: 12:32:20
(UTC+00:00)

Cosmos 1726 Rocket - Pass Details

Date: 15 May 2026
Orbit: 555 x 660 km, 82.5° (Epoch: 8 June)

Event Time Altitude Azimuth Distance (km) Brightness Sun altitude
Exits shadow 21:25:48 19° 173° (S) 1,353 4.8 -13.1°
Maximum altitude 21:28:33 61° 97° (E) 635 3.4 -13.3°
Drops below altitude 10° 21:32:35 10° 17° (NNE) 1,857 6.7 -13.6°
Sets 21:34:47 0° 14° (NNE) 2,764 7.7 -13.8°
